Regional Weather Roundup
Issued by NWS

Home | Current Version | Previous Version | Graphics & Text | Print | Product List | Glossary On
Versions: 1 2 3 4 5 6 7 8 9 10 11 12 13 14 15 16 17 18 19 20 21 22 23 24 25 26 27 28 29 30 31 32 33 34 35 36 37 38 39 40 41 42 43 44 45 46 47 48 49 50
000
ASUS43 KBIS 240220
RWRND

NORTH DAKOTA REGIONAL WEATHER ROUNDUP
NATIONAL WEATHER SERVICE BISMARCK ND
900 PM CDT WED APR 23 2014

NOTE: "FAIR" INDICATES FEW OR NO CLOUDS BELOW 12,000 FEET WITH NO
SIGNIFICANT WEATHER AND/OR OBSTRUCTIONS TO VISIBILITY.


NDZ001>003-009>011-017-240300-
NORTHWEST NORTH DAKOTA

CITY           SKY/WX    TMP DP  RH WIND       PRES   REMARKS
WILLISTON      MOCLDY    51  38  60 CALM      29.60R
MINOT          CLOUDY    46  44  93 S3        29.62R
MINOT AFB      CLOUDY    45  45 100 E8        29.61S
$$

NDZ018>021-031>035-040>046-240300-
SOUTHWEST NORTH DAKOTA

CITY           SKY/WX    TMP DP  RH WIND       PRES   REMARKS
BISMARCK       CLOUDY    50  32  50 NW8       29.68R
DICKINSON      CLOUDY    50  27  40 NW10      29.64R
GARRISON         N/A     43  40  89 W6        29.64R
HETTINGER ARPT MOCLDY    50  30  46 W12       29.70R
$$

NDZ004>008-012>016-024-026-027-054-240300-
NORTHEAST NORTH DAKOTA

CITY           SKY/WX    TMP DP  RH WIND       PRES   REMARKS
GRAND FORKS    LGT RAIN  41  38  89 SE22G32   29.84S
GRND FRKS AFB  LGT RAIN  39  39 100 SE21G28   29.83S
DEVILS LAKE    CLOUDY    37  32  81 SE20      29.74R
$$

NDZ022-023-025-028>030-036>039-047>053-240300-
SOUTHEAST NORTH DAKOTA

CITY           SKY/WX    TMP DP  RH WIND       PRES   REMARKS
FARGO          LGT RAIN  41  38  89 SE16      29.83R
JAMESTOWN      CLOUDY    40  38  93 SE21G28   29.70S
$$




USA.gov is the U.S. government's official web portal to all federal, state and local government web resources and services.